Weerstation Grootegast  Weerstation Grootegast


15 daagse weersverwachting Bodø (NO)

  • Overzicht
  • Per uur
  • 15 dagen
  • Extra
  • Vergelijk
  • Kaarten
  • Dagkaart
  • Meer »
  • Info
  • Statistieken
  • Directe link
    Temp 6h Neerslag Wind  
 07:26     17:05    Daglengte: 9:39 Vandaag
19:00
13.9 mm
11
 07:22     17:09    Daglengte: 9:47 Morgen
01:00
10.6 mm
10
07:00
6.7 mm
13
warningclass
13:00
14.3 mm
15
warningclass
19:00
22.1 mm
13
warningclass
 07:18     17:13    Daglengte: 9:55 Maandag 01 Maa
01:00
28.7 mm
12
07:00
25.2 mm
11
13:00
15.7 mm
12
19:00
20.6 mm
9
 07:14     17:16    Daglengte: 10:02 Dinsdag 02 Maa
01:00
29.4 mm
10
07:00
38.3 mm
10
Locatie info
Region: Nordland
Latitude: 67.2860°N
Longitude: 14.3998°E
22 masl
Postcode: 8006
Temp/Neerslag /Baro Onweer/DauwpuntSneeuw
    Temp Baro 1h Neerslag Dauwpunt Wind UV BewolkingSneeuw  
 07:26     17:05    Daglengte: 9:39 Vandaag
14:00
Voelt als: 0.2°
1011.2 hPa 6.1 mm
48%
4.1°
12
Windvlaag: 17.6 m/s
84% warningclass
15:00
Voelt als: 0.3°
1010.8 hPa 0.9 mm
82%
4.6°
11
Windvlaag: 15 m/s
88%
16:00
Voelt als: -0.4°
1009.9 hPa 1.7 mm
82%
4.4°
12
Windvlaag: 16 m/s
90%
17:00
Voelt als: -0.5°
1009.4 hPa 1.7 mm
82%
4.3°
12
Windvlaag: 17.3 m/s
90% warningclass
18:00
Voelt als: -0.5°
1009.2 hPa 1.9 mm
82%
4.3°
12
Windvlaag: 17.1 m/s
91% warningclass
19:00
Voelt als: -0.1°
1009.4 hPa 1.5 mm
82%
4.2°
11
Windvlaag: 16.3 m/s
88%
20:00
Voelt als: 0.2°
1009.8 hPa 1.6 mm
82%
4.4°
11
Windvlaag: 14.5 m/s
86%
21:00
Voelt als: 0.4°
1010.3 hPa 1.7 mm
82%
4.3°
10
Windvlaag: 13.8 m/s
88%1 cm
22:00
Voelt als: 0.5°
1011.1 hPa 1.8 mm
82%
4.1°
10
Windvlaag: 12.8 m/s
87%1 cm
23:00
Voelt als: 0.5°
1012.1 hPa 1.8 mm
82%
4.2°
10
Windvlaag: 12.5 m/s
77%1 cm
 07:22     17:09    Daglengte: 9:47 Morgen
00:00
Voelt als: 0.4°
1012.6 hPa 1.9 mm
82%
4.2°
10
Windvlaag: 12.6 m/s
87%1 cm
01:00
Voelt als: 0.5°
1013.1 hPa 1.9 mm
82%
4.1°
10
Windvlaag: 13.6 m/s
90%1 cm
02:00
Voelt als: 0.5°
1013.4 hPa
82%
4.2°
10
Windvlaag: 13.3 m/s
85%1 cm
03:00
Voelt als: 0.4°
1013.5 hPa
82%
4.7°
11
Windvlaag: 14.3 m/s
90%1 cm
04:00
Voelt als: 0.3°
1013.5 hPa
82%
4.9°
11
Windvlaag: 14.8 m/s
91%1 cm
05:00
Voelt als: 0.3°
1013.6 hPa 1.5 mm
82%
5.2°
12
Windvlaag: 15.5 m/s
91%1 cm
06:00
Voelt als: 0.0°
1013.8 hPa 2.5 mm
82%
5.2°
12
Windvlaag: 16.3 m/s
91%1 cm
07:00
Voelt als: -0.2°
1014.0 hPa 2.7 mm
82%
5.3°
13
Windvlaag: 17.3 m/s
91%1 cm warningclass
08:00
Voelt als: -0.3°
1014.2 hPa 2.5 mm
82%
5.3°
14
Windvlaag: 18 m/s
91%1 cm warningclass
09:00
Voelt als: -0.3°
1014.3 hPa 2.4 mm
81%
5.4°
14
Windvlaag: 18.8 m/s
91%1 cm warningclass
10:00
Voelt als: -0.4°
1014.5 hPa 2.3 mm
82%
5.3°
15
Windvlaag: 19.4 m/s
91%1 cm warningclass
11:00
Voelt als: -0.4°
1014.7 hPa 2.2 mm
82%
5.2°
15
Windvlaag: 19.8 m/s
91%1 cm warningclass
12:00
Voelt als: -0.3°
1014.7 hPa 2.5 mm
82%
5.3°
15
Windvlaag: 19.8 m/s
91%1 cm warningclass
13:00
Voelt als: -0.4°
1014.5 hPa 2.4 mm
82%
5.3°
15
Windvlaag: 19.5 m/s
91%1 cm warningclass
14:00
Voelt als: -0.6°
1014.1 hPa 2.6 mm
82%
5.1°
15
Windvlaag: 19.6 m/s
91%1 cm warningclass
15:00
Voelt als: -0.3°
1013.4 hPa 2.7 mm
82%
5.3°
15
Windvlaag: 20.3 m/s
91%1 cm warningclass
16:00
Voelt als: -0.4°
1012.7 hPa 2.9 mm
82%
5.3°
15
Windvlaag: 20.9 m/s
91%1 cm warningclass
17:00
Voelt als: -0.7°
1012.2 hPa 3.9 mm
82%
5.0°
15
Windvlaag: 21.7 m/s
91%1 cm warningclass
18:00
Voelt als: -0.6°
1012.0 hPa 4.8 mm
82%
4.9°
15
Windvlaag: 21.5 m/s
91%1 cm warningclass
19:00
Voelt als: -0.4°
1011.7 hPa 5.2 mm
82%
5.0°
13
Windvlaag: 20.2 m/s
91%1 cm warningclass
20:00
Voelt als: 0.1°
1011.5 hPa 3.5 mm
82%
4.9°
12
Windvlaag: 18.4 m/s
91%1 cm warningclass
21:00
Voelt als: -0.2°
1011.2 hPa 4.8 mm
82%
4.2°
12
Windvlaag: 16.5 m/s
90%1 cm
22:00
Voelt als: -0.4°
1011.0 hPa 4.8 mm
82%
3.9°
12
Windvlaag: 16 m/s
91%1 cm
23:00
Voelt als: -0.6°
1010.8 hPa 5.3 mm
82%
3.7°
12
Windvlaag: 15.8 m/s
90%1 cm
 07:18     17:13    Daglengte: 9:55 Maandag 01 Maa
00:00
Voelt als: -0.8°
1010.5 hPa 5.1 mm
82%
3.0°
12
Windvlaag: 14.6 m/s
89%1 cm
01:00
Voelt als: -0.8°
1010.0 hPa 5.2 mm
79%
2.4°
12
Windvlaag: 15.3 m/s
88%1 cm
02:00
Voelt als: -0.9°
1009.8 hPa 5.1 mm
81%
2.3°
11
Windvlaag: 15.2 m/s
89%1 cm
03:00
Voelt als: -1.1°
1009.6 hPa 4.9 mm
82%
2.0°
11
Windvlaag: 15.3 m/s
76%1 cm
04:00
Voelt als: -1.2°
1009.4 hPa 5.1 mm
82%
1.6°
11
Windvlaag: 14.3 m/s
79%1 cm
05:00
Voelt als: -1.3°
1009.4 hPa
82%
0.8°
11
Windvlaag: 13.8 m/s
72%1 cm
06:00
Voelt als: -1.5°
1009.2 hPa 5.1 mm
82%
0.6°
11
Windvlaag: 13.7 m/s
77%1 cm
07:00
Voelt als: -1.4°
1009.2 hPa 5.1 mm
82%
0.4°
11
Windvlaag: 13.9 m/s
56%1 cm
08:00
Voelt als: -1.6°
1009.4 hPa
82%
0.1°
11
Windvlaag: 14.2 m/s
18%1 cm
09:00
Voelt als: -1.8°
1009.8 hPa 5.0 mm
82%
0.0°
11
Windvlaag: 14.4 m/s
32%1 cm
10:00
Voelt als: -1.6°
1009.7 hPa
100%
-0.2°
12
Windvlaag: 15 m/s
57%1 cm
11:00
Voelt als: -1.4°
1009.9 hPa
100%
-0.2°
12
Windvlaag: 15.7 m/s
77%1 cm
12:00
Voelt als: -1.6°
1010.0 hPa 5.4 mm
100%
-0.1°
12
Windvlaag: 16.1 m/s
75%1 cm
13:00
Voelt als: -1.4°
1010.1 hPa 5.3 mm
100%
0.5°
12
Windvlaag: 15.1 m/s
77%1 cm
14:00
Voelt als: -1.4°
1010.0 hPa 5.4 mm
100%
0.4°
12
Windvlaag: 15 m/s
86%1 cm
15:00
Voelt als: -1.7°
1010.0 hPa 5.8 mm
100%
0.2°
12
Windvlaag: 15.1 m/s
90%1 cm
16:00
Voelt als: -2.2°
1010.4 hPa
95%
2.4°
12
Windvlaag: 15.7 m/s
73%1 cm
17:00
Voelt als: -2.3°
1010.7 hPa
52%
1.8°
11
Windvlaag: 15.1 m/s
81%1 cm
18:00
Voelt als: -2.4°
1010.8 hPa 4.0 mm
94%
2.6°
10
Windvlaag: 14.4 m/s
91%1 cm
19:00
Voelt als: -2.5°
1011.1 hPa 5.5 mm
100%
2.2°
9
Windvlaag: 13.3 m/s
84%1 cm
20:00
Voelt als: -2.8°
1011.7 hPa 5.8 mm
100%
1.8°
9
Windvlaag: 0.5 m/s
86%1 cm
21:00
Voelt als: -2.9°
1012.1 hPa 6.0 mm
100%
1.6°
9
Windvlaag: 0.4 m/s
79%1 cm
22:00
Voelt als: -2.3°
1012.6 hPa
100%
1.6°
9
Windvlaag: 0.5 m/s
83%1 cm
23:00
Voelt als: -2.5°
1013.0 hPa 5.5 mm
100%
1.5°
9
Windvlaag: 1.7 m/s
78%1 cm
 07:14     17:16    Daglengte: 10:02 Dinsdag 02 Maa
00:00
Voelt als: -2.6°
1013.4 hPa 6.2 mm
100%
1.6°
10
Windvlaag: 3.3 m/s
76%1 cm
01:00
Voelt als: -2.2°
1013.9 hPa 5.9 mm
100%
1.4°
10
Windvlaag: 0.5 m/s
69%1 cm
02:00
Voelt als: -2.2°
1014.2 hPa 6.4 mm
100%
1.4°
10
Windvlaag: 1.9 m/s
73%2 cm
03:00
Voelt als: -2.2°
1014.6 hPa 6.2 mm
100%
1.6°
10
Windvlaag: 2.1 m/s
65%2 cm
04:00
Voelt als: -2.3°
1014.9 hPa 6.3 mm
100%
1.2°
10
Windvlaag: 0.5 m/s
72%2 cm
05:00
Voelt als: -2.2°
1015.2 hPa 6.2 mm
100%
1.2°
10
Windvlaag: 1.7 m/s
66%2 cm
06:00
Voelt als: -2.2°
1015.5 hPa 6.6 mm
100%
1.2°
10
Windvlaag: 2.5 m/s
73%3 cm
07:00
Voelt als: -2.1°
1015.9 hPa 6.6 mm
100%
0.9°
10
Windvlaag: 0.7 m/s
57%2 cm
08:00
Voelt als: -2.2°
1016.5 hPa 10.7 mm
100%
0.6°
10
Windvlaag: 13.9 m/s
63%2 cm
09:00
Voelt als: -2.1°
1017.0 hPa 10.5 mm
100%
0.9°
10
Windvlaag: 13.1 m/s
70%2 cm
10:00
Voelt als: -1.9°
1017.7 hPa 10.5 mm
100%
0.8°
10
Windvlaag: 13.6 m/s
65%2 cm
11:00
Voelt als: -1.7°
1018.3 hPa
99%
0.8°
9
Windvlaag: 12.3 m/s
67%2 cm
12:00
Voelt als: -1.5°
1018.9 hPa 10.8 mm
100%
1.1°
9
Windvlaag: 12.8 m/s
76%2 cm
13:00
Voelt als: -1.5°
1019.4 hPa 10.8 mm
100%
0.9°
9
Windvlaag: 1.8 m/s
80%2 cm
Temp/Neerslag /Baro Onweer/DauwpuntSneeuw
    Temp Baro Neerslag Dauwpunt Wind BewolkingSneeuw  
 07:26     17:05    Daglengte: 9:39 Vandaag
16:00
Voelt als: -0.4°
1009.9 hPa 8.8 mm 4.4°
12
90%
19:00
Voelt als: -0.1°
1009.4 hPa 5.2 mm 4.2°
11
88%
22:00
Voelt als: 0.5°
1011.1 hPa 5.1 mm 4.1°
10
87%1 cm
 07:22     17:09    Daglengte: 9:47 Morgen
01:00
Voelt als: 0.5°
1013.1 hPa 5.5 mm 4.1°
10
90%1 cm
04:00
Voelt als: 0.3°
1013.5 hPa   4.9°
11
91%1 cm
07:00
Voelt als: -0.2°
1014.0 hPa 6.7 mm 5.3°
13
91%1 cm warningclass
10:00
Voelt als: -0.4°
1014.5 hPa 7.2 mm 5.3°
15
91%1 cm warningclass
13:00
Voelt als: -0.4°
1014.5 hPa 7.1 mm 5.3°
15
91%1 cm warningclass
16:00
Voelt als: -0.4°
1012.7 hPa 8.2 mm 5.3°
15
91%1 cm warningclass
19:00
Voelt als: -0.4°
1011.7 hPa 13.8 mm 5.0°
13
91%1 cm warningclass
22:00
Voelt als: -0.4°
1011.0 hPa 13.0 mm 3.9°
12
91%1 cm
 07:18     17:13    Daglengte: 9:55 Maandag 01 Maa
01:00
Voelt als: -0.8°
1010.0 hPa 15.7 mm 2.4°
12
88%1 cm
04:00
Voelt als: -1.2°
1009.4 hPa 15.1 mm 1.6°
11
79%1 cm
07:00
Voelt als: -1.4°
1009.2 hPa 10.2 mm 0.4°
11
56%1 cm
10:00
Voelt als: -1.6°
1009.7 hPa 5.0 mm -0.2°
12
57%1 cm
13:00
Voelt als: -1.4°
1010.1 hPa 10.7 mm 0.5°
12
77%1 cm
16:00
Voelt als: -2.2°
1010.4 hPa 11.1 mm 2.4°
12
73%1 cm
19:00
Voelt als: -2.5°
1011.1 hPa 9.5 mm 2.2°
9
84%1 cm
22:00
Voelt als: -2.3°
1012.6 hPa 11.8 mm 1.6°
9
83%1 cm
 07:14     17:16    Daglengte: 10:02 Dinsdag 02 Maa
01:00
Voelt als: -2.2°
1013.9 hPa 17.6 mm 1.4°
10
69%1 cm
04:00
Voelt als: -2.3°
1014.9 hPa 18.9 mm 1.2°
10
72%2 cm
07:00
Voelt als: -2.1°
1015.9 hPa 19.4 mm 0.9°
10
57%2 cm
10:00
Voelt als: -1.9°
1017.7 hPa 31.7 mm 0.8°
10
65%2 cm
13:00
Voelt als: -1.5°
1019.4 hPa 32.0 mm 0.9°
9
80%2 cm
16:00
Voelt als: -1.6°
1019.4 hPa 40.3 mm 1.1°
9
86%
19:00
Voelt als: -1.4°
1019.6 hPa 40.6 mm 1.3°
8
92%
22:00
Voelt als: -1.5°
1017.1 hPa 40.9 mm 1.7°
9
92%
 07:10     17:20    Daglengte: 10:10 Woensdag 03 Maa
01:00
Voelt als: -1.7°
1014.4 hPa 41.2 mm 2.3°
9
92%
04:00
Voelt als: -3.1°
1011.6 hPa 42.4 mm 1.1°
10
89%
07:00
Voelt als: -4.2°
1008.8 hPa 45.3 mm 0.2°
11
86%
10:00
Voelt als: -4.3°
1009.4 hPa 47.6 mm -0.8°
10
79%
13:00
Voelt als: -4.6°
1010.1 hPa 49.7 mm -1.9°
10
72%
16:00
Voelt als: -4.9°
1011.9 hPa 50.7 mm -2.2°
10
75%
19:00
Voelt als: -5.1°
1013.7 hPa 51.9 mm -2.2°
9
78%
22:00
Voelt als: -5.2°
1015.7 hPa 53.0 mm -2.2°
9
71%
 07:06     17:24    Daglengte: 10:18 Donderdag 04 Maa
01:00
Voelt als: -5.4°
1017.8 hPa 54.5 mm -2.9°
9
65%
04:00
Voelt als: -5.7°
1018.2 hPa 54.8 mm -3.3°
8
63%
07:00
Voelt als: -5.9°
1018.5 hPa 55.1 mm -3.5°
8
62%
10:00
Voelt als: -5.3°
1019.4 hPa 55.5 mm -3.4°
7
73%
13:00
Voelt als: -4.8°
1020.2 hPa 55.6 mm -3.2°
7
84%
16:00
Voelt als: -4.7°
1019.3 hPa 57.0 mm -3.0°
6
84%
19:00
Voelt als: -4.6°
1018.5 hPa 57.5 mm -3.1°
5
85%
22:00
Voelt als: -4.5°
1018.6 hPa 58.6 mm -3.4°
4
82%
 07:02     17:27    Daglengte: 10:25 Vrijdag 05 Maa
01:00
-0°
Voelt als: -4.5°
1018.6 hPa 59.8 mm -3.7°
4
79%
04:00
-1°
Voelt als: -5.0°
1017.6 hPa 61.0 mm -4.2°
4
67%
07:00
-2°
Voelt als: -5.5°
1016.6 hPa 62.1 mm -4.8°
3
56%
10:00
-1°
Voelt als: -4.1°
1017.1 hPa 63.4 mm -4.8°
3
48%
13:00
-0°
Voelt als: -2.8°
1017.6 hPa 64.6 mm -4.8°
2
40%
16:00
-1°
Voelt als: -3.4°
1017.8 hPa 65.0 mm -5.4°
2
43%
19:00
-2°
Voelt als: -4.2°
1017.9 hPa 65.2 mm -5.9°
2
47%
22:00
-3°
Voelt als: -6.3°
1018.9 hPa 65.2 mm -6.4°
2
47%
 06:58     17:31    Daglengte: 10:33 Zaterdag 06 Maa
01:00
-4°
Voelt als: -8.1°
1019.9 hPa 65.3 mm -7.0°
3
48%
04:00
-4°
Voelt als: -8.4°
1020.0 hPa 65.3 mm -7.2°
3
63%
07:00
-4°
Voelt als: -8.7°
1020.1 hPa 65.3 mm -7.2°
3
77%
10:00
-3°
Voelt als: -6.6°
1020.1 hPa 65.5 mm -6.4°
3
81%
13:00
-1°
Voelt als: -4.5°
1020.2 hPa 131.4 mm -5.5°
3
84%
19:00
Voelt als: -2.8°
1010.4 hPa 134.5 mm -1.4°
4
92%
 06:54     17:34    Daglengte: 10:40 Zondag 07 Maa
01:00
Voelt als: -4.0°
1009.3 hPa 136.7 mm -1.0°
7
92%
07:00
-0°
Voelt als: -5.4°
1012.2 hPa 142.7 mm -3.9°
5
91%
13:00
Voelt als: -4.1°
1011.1 hPa 147.6 mm -3.8°
5
91%
19:00
-0°
Voelt als: -3.7°
1011.2 hPa 159.1 mm -3.8°
3
84%
 06:50     17:38    Daglengte: 10:48 Maandag 08 Maa
01:00
-0°
Voelt als: -4.6°
1010.9 hPa 165.2 mm -3.4°
4
83%
07:00
-0°
Voelt als: -4.5°
1008.6 hPa 177.1 mm -3.2°
4
90%
13:00
Voelt als: -1.9°
1009.9 hPa 196.4 mm -3.1°
3
91%
19:00
Voelt als: -4.1°
1009.5 hPa 213.6 mm -3.2°
4
87%
 06:46     17:41    Daglengte: 10:55 Dinsdag 09 Maa
01:00
Voelt als: -1.1°
1010.0 hPa 217.1 mm 3.4°
9
1%
07:00
Voelt als: -0.8°
1010.7 hPa 222.2 mm 1.1°
7
1%
13:00
Voelt als: -2.3°
1004.1 hPa 2.0 mm -0.8°
4
93%
19:00
Voelt als: -2.9°
1002.2 hPa 2.4 mm -1.5°
3
89%
 06:42     17:45    Daglengte: 11:03 Woensdag 10 Maa
01:00
-0°
Voelt als: -3.3°
1001.3 hPa 2.4 mm -2.6°
3
83%
07:00
-1°
Voelt als: -4.0°
999.8 hPa 1.6 mm -3.2°
2
84%
13:00
Voelt als: -2.6°
999.3 hPa 2.0 mm -2.0°
3
88%
19:00
-0°
Voelt als: -3.2°
998.9 hPa 1.3 mm -2.7°
2
86%
 06:38     17:49    Daglengte: 11:11 Donderdag 11 Maa
01:00
-1°
Voelt als: -4.8°
998.4 hPa 1.5 mm -3.5°
3
85%
07:00
-1°
Voelt als: -5.6°
997.3 hPa 0.9 mm -3.7°
4
92%
13:00
Voelt als: -3.3°
997.2 hPa 1.2 mm -1.9°
4
88%
19:00
-1°
Voelt als: -3.7°
997.5 hPa 1.6 mm -2.8°
3
89%
 06:34     17:52    Daglengte: 11:18 Vrijdag 12 Maa
01:00
-1°
Voelt als: -3.9°
998.2 hPa 1.6 mm -3.4°
2
88%
07:00
-1°
Voelt als: -3.9°
998.4 hPa 1.0 mm -3.3°
2
88%
13:00
Voelt als: -1.5°
998.8 hPa 0.1 mm -2.2°
2
82%
19:00
-0°
Voelt als: -1.7°
999.1 hPa 0.7 mm -2.8°
1
88%
 06:29     17:56    Daglengte: 11:27 Zaterdag 13 Maa
01:00
-1°
Voelt als: -3.4°
1000.1 hPa 1.1 mm -3.8°
2
86%
07:00
-1°
Voelt als: -4.0°
1000.8 hPa 1.5 mm -3.8°
2
80%
13:00
Voelt als: -2.5°
1002.2 hPa 1.4 mm -2.3°
3
76%
19:00
-1°
Voelt als: -3.3°
1003.4 hPa 1.2 mm -3.7°
2
71%
 06:25     17:59    Daglengte: 11:34 Zondag 14 Maa
01:00
-2°
Voelt als: -4.6°
1004.7 hPa 0.1 mm -4.5°
2
68%
07:00
-2°
Voelt als: -6.5°
1004.4 hPa 1.2 mm -5.4°
3
58%
13:00
Voelt als: -3.0°
1004.3 hPa 1.3 mm -3.0°
3
67%
  CAPE Lifted Index Hail Supercell Tornado SRH 3km CL BTM PRES CL TOP PRES Swiss DWD icon SMHI TS
 07:26     17:05    Daglengte: 9:39 Vandaag
14:00 59 J/kg 6.0 K 0 % 0 % 0 % 0 m²/s² 0 0 11.46 80
15:00 38 J/kg 5.0 K 0 % 0 % 0 % 0 m²/s² 0 0 5.45 3
16:00 58 J/kg 3.6 K 0 % 0 % 0 % 0 m²/s² 0 0 4.11 80
17:00 52 J/kg 2.9 K 0 % 0 % 0 % 0 m²/s² 0 0 3.35 80
18:00 52 J/kg 3.4 K 0 % 0 % 0 % 0 m²/s² 0 0 4.03 61
19:00 38 J/kg 4.4 K 0 % 0 % 0 % 0 m²/s² 0 0 4.73 61
20:00 23 J/kg 6.0 K 0 % 0 % 0 % 0 m²/s² 0 0 6.87 80
21:00 29 J/kg 6.9 K 0 % 0 % 0 % 0 m²/s² 0 0 9.33 80
22:00 30 J/kg 7.6 K 0 % 0 % 0 % 0 m²/s² 0 0 11.65 80
23:00 30 J/kg 8.8 K 0 % 0 % 0 % 0 m²/s² 0 0 13.93 80
 07:22     17:09    Daglengte: 9:47 Morgen
00:00 10 J/kg 9.8 K 0 % 0 % 0 % 0 m²/s² 0 0 15.11 80
01:00 21 J/kg 10.7 K 0 % 0 % 0 % 0 m²/s² 0 0 14.51 80
02:00 20 J/kg 10.2 K 0 % 0 % 0 % 0 m²/s² 0 0 12.09 3
03:00 9 J/kg 10.1 K 0 % 0 % 0 % 0 m²/s² 0 0 10.97 80
04:00 5 J/kg 9.1 K 0 % 0 % 0 % 0 m²/s² 0 0 9.67 3
05:00 6 J/kg 8.3 K 0 % 0 % 0 % 0 m²/s² 0 0 8.42 3
06:00 2 J/kg 7.8 K 0 % 0 % 0 % 0 m²/s² 0 0 8.01 63
07:00 0 J/kg 7.6 K 0 % 0 % 0 % 0 m²/s² 0 0 7.87 61
08:00 0 J/kg 6.3 K 0 % 0 % 0 % 0 m²/s² 0 0 6.87 3
09:00 0 J/kg 5.3 K 0 % 0 % 0 % 0 m²/s² 0 0 8.18 3
10:00 0 J/kg 5.7 K 0 % 0 % 0 % 0 m²/s² 0 0 9.18 61
11:00 0 J/kg 6.0 K 0 % 0 % 0 % 0 m²/s² 0 0 8.97 61
12:00 0 J/kg 5.9 K 0 % 0 % 0 % 0 m²/s² 0 0 8.15 61
13:00 0 J/kg 6.1 K 0 % 0 % 0 % 0 m²/s² 0 0 8.26 80
14:00 0 J/kg 6.5 K 0 % 0 % 0 % 0 m²/s² 0 0 8.54 61
15:00 0 J/kg 6.5 K 0 % 0 % 0 % 0 m²/s² 0 0 8.3 61
16:00 0 J/kg 6.0 K 0 % 0 % 0 % 0 m²/s² 0 0 7.65 61
17:00 0 J/kg 5.4 K 0 % 0 % 0 % 0 m²/s² 0 0 5.82 63
18:00 0 J/kg 5.8 K 0 % 0 % 0 % 0 m²/s² 0 0 6.16 61
19:00 10 J/kg 5.5 K 0 % 0 % 0 % 0 m²/s² 0 0 5.89 61
20:00 61 J/kg 5.3 K 0 % 0 % 0 % 0 m²/s² 0 0 6.02 80
21:00 93 J/kg 5.7 K 0 % 0 % 0 % 0 m²/s² 0 0 6.9 80
22:00 131 J/kg 6.2 K 0 % 0 % 0 % 0 m²/s² 0 0 7.49 80
23:00 144 J/kg 6.4 K 0 % 0 % 0 % 0 m²/s² 0 0 7.63 80
 07:18     17:13    Daglengte: 9:55 Maandag 01 Maa
00:00 164 J/kg 6.2 K 0 % 0 % 0 % 0 m²/s² 0 0 7.37 80
01:00 176 J/kg 5.3 K 0 % 0 % 0 % 0 m²/s² 0 0 6.56 80
02:00 182 J/kg 3.9 K 0 % 0 % 0 % 0 m²/s² 0 0 7.71 80
03:00 184 J/kg 3.3 K 0 % 0 % 0 % 0 m²/s² 0 0 7.2 80
04:00 197 J/kg 3.3 K 0 % 0 % 0 % 0 m²/s² 0 0 5.22 80
05:00 152 J/kg 3.8 K 0 % 0 % 0 % 0 m²/s² 0 0 4.97 80
06:00 222 J/kg 2.3 K 0 % 0 % 0 % 0 m²/s² 0 0 3.02 80
07:00 105 J/kg 3.5 K 0 % 0 % 0 % 0 m²/s² 0 0 6.08 80
08:00 102 J/kg 4.4 K 0 % 0 % 0 % 0 m²/s² 0 0 6.71 2
09:00 107 J/kg 4.6 K 0 % 0 % 0 % 0 m²/s² 0 0 7.63 80
10:00 101 J/kg 5.1 K 0 % 0 % 0 % 0 m²/s² 0 0 7.89 80
11:00 130 J/kg 5.1 K 0 % 0 % 0 % 0 m²/s² 0 0 7.59 80
12:00 112 J/kg 5.1 K 0 % 0 % 0 % 0 m²/s² 0 0 8.37 80
13:00 84 J/kg 4.6 K 0 % 0 % 0 % 0 m²/s² 0 0 7.18 80
14:00 91 J/kg 4.1 K 0 % 0 % 0 % 0 m²/s² 0 0 7.82 80
15:00 93 J/kg 4.0 K 0 % 0 % 0 % 0 m²/s² 0 0 8.32 80
16:00 74 J/kg 4.0 K 0 % 0 % 0 % 0 m²/s² 0 0 8.44 1
17:00 72 J/kg 3.8 K 0 % 0 % 0 % 0 m²/s² 0 0 8.24 2
18:00 85 J/kg 3.9 K 0 % 0 % 0 % 0 m²/s² 0 0 8.13 80
19:00 92 J/kg 4.5 K 0 % 0 % 0 % 0 m²/s² 0 0 8.13 80
20:00 70 J/kg 5.0 K 0 % 0 % 0 % 0 m²/s² 0 0 8.45 85
21:00 97 J/kg 5.0 K 0 % 0 % 0 % 0 m²/s² 0 0 8.09 85
22:00 84 J/kg 5.3 K 0 % 0 % 0 % 0 m²/s² 0 0 8.09 3
23:00 57 J/kg 5.7 K 0 % 0 % 0 % 0 m²/s² 0 0 7.62 80
 07:14     17:16    Daglengte: 10:02 Dinsdag 02 Maa
00:00 130 J/kg 5.8 K 0 % 0 % 0 % 0 m²/s² 0 0 10.75 80
01:00 27 J/kg 6.8 K 0 % 0 % 0 % 0 m²/s² 0 0 9.74 80
02:00 64 J/kg 6.2 K 0 % 0 % 0 % 0 m²/s² 0 0 9.14 85
03:00 81 J/kg 6.2 K 0 % 0 % 0 % 0 m²/s² 0 0 9.83 80
04:00 1 J/kg 8.3 K 0 % 0 % 0 % 0 m²/s² 0 0 13.28 3
05:00 62 J/kg 8.2 K 0 % 0 % 0 % 0 m²/s² 0 0 12.82 85
06:00 62 J/kg 7.8 K 0 % 0 % 0 % 0 m²/s² 0 0 11.94 85
07:00 44 J/kg 9.6 K 0 % 0 % 0 % 0 m²/s² 0 0 16.23 85
08:00 29 J/kg 10.6 K 0 % 0 % 0 % 0 m²/s² 0 0 17.77 85
09:00 64 J/kg 10.8 K 0 % 0 % 0 % 0 m²/s² 0 0 17.49 80
10:00 58 J/kg 11.7 K 0 % 0 % 0 % 0 m²/s² 0 0 17.94 85
11:00 46 J/kg 11.8 K 0 % 0 % 0 % 0 m²/s² 0 0 18.28 2
12:00 27 J/kg 11.7 K 0 % 0 % 0 % 0 m²/s² 0 0 18 85
13:00 38 J/kg 11.2 K 0 % 0 % 0 % 0 m²/s² 0 0 17.98 80
Temp Baro Wind Neerslag
  EWN Forecast EWN WRFDA DWD ICON FMI HIRLAM MET Norway GFS
 07:26     17:05    Daglengte: 9:39 Vandaag
16:00 5.4° 1009.9 hPa 12.0 m/s 8.8 mm 4.6° 1007.4 hPa 10.3 m/s 15.7 mm 5.7° 1011.0 hPa 12.3 m/s 14.0 mm 6.2° 1009.2 hPa 11.5 m/s 0.0 mm 4.3° 1010.0 hPa 12.0 m/s 4.8° 1009.5 hPa 12.5 m/s
19:00 5.5° 1009.4 hPa 11.1 m/s 5.2 mm 4.6° 1007.2 hPa 10.7 m/s 19.3 mm 5.6° 1010.3 hPa 10.5 m/s 2.4 mm 6.3° 1008.6 hPa 11.2 m/s 0.0 mm 4.7° 1009.4 hPa 11.1 m/s 5.3° 1009.6 hPa 11.0 m/s
22:00 5.6° 1011.1 hPa 9.5 m/s 5.1 mm 4.3° 1008.4 hPa 8.8 m/s 20.8 mm 5.8° 1012.4 hPa 8.8 m/s 1.6 mm 6.2° 1010.9 hPa 9.0 m/s 0.0 mm 4.6° 1011.1 hPa 9.8 m/s 5.3° 1010.8 hPa 10.2 m/s
 07:22     17:09    Daglengte: 9:47 Morgen
01:00 5.6° 1013.1 hPa 9.6 m/s 5.5 mm 4.3° 1010.5 hPa 9.7 m/s 24.0 mm 5.8° 1014.1 hPa 9.9 m/s 1.4 mm 6.2° 1012.6 hPa 8.2 m/s 0.0 mm 4.7° 1013.1 hPa 9.4 m/s 5.2° 1012.7 hPa 9.7 m/s
04:00 5.8° 1013.5 hPa 11.1 m/s 0.0 mm 4.6° 1010.9 hPa 11.0 m/s 25.8 mm 6.1° 1014.8 hPa 11.5 m/s 0.7 mm 6.4° 1013.3 hPa 9.4 m/s 0.0 mm 5.4° 1013.4 hPa 10.9 m/s 5.6° 1012.4 hPa 12.2 m/s
07:00 5.7° 1014.0 hPa 12.9 m/s 6.7 mm 4.9° 1012.2 hPa 11.5 m/s 29.8 mm 6.1° 1015.0 hPa 13.8 m/s 5.9 mm 6.4° 1013.2 hPa 11.4 m/s 0.0 mm 5.2° 1014.0 hPa 12.8 m/s 5.6° 1013.3 hPa 13.0 m/s
10:00 5.8° 1014.5 hPa 14.8 m/s 7.2 mm 5.0° 1012.3 hPa 12.0 m/s 36.1 mm 6.4° 1015.7 hPa 14.5 m/s 1.5 mm 6.6° 1013.5 hPa 13.6 m/s 0.0 mm 5.0° 1014.5 hPa 15.1 m/s 5.8° 1013.6 hPa 14.1 m/s
13:00 5.8° 1014.5 hPa 15.0 m/s 7.1 mm 4.9° 1012.5 hPa 12.4 m/s 38.7 mm 6.2° 1015.1 hPa 14.6 m/s 1.9 mm 6.6° 1013.7 hPa 13.6 m/s 0.0 mm 5.3° 1014.5 hPa 15.6 m/s 5.8° 1014.3 hPa 14.4 m/s
16:00 5.9° 1012.7 hPa 15.3 m/s 8.2 mm 4.8° 1010.3 hPa 13.9 m/s 40.4 mm 6.1° 1012.8 hPa 14.4 m/s 3.7 mm 6.6° 1013.1 hPa 12.0 m/s 0.0 mm 5.4° 1012.6 hPa 16.2 m/s 5.6° 1011.8 hPa 16.2 m/s
19:00 5.6° 1011.7 hPa 13.4 m/s 13.8 mm 5.1° 1009.1 hPa 12.7 m/s 53.1 mm 6.1° 1011.8 hPa 11.2 m/s 6.5 mm 6.3° 1012.4 hPa 10.9 m/s 0.0 mm 5.2° 1011.3 hPa 14.5 m/s 5.5° 1010.6 hPa 14.7 m/s
22:00 5.4° 1011.0 hPa 12.2 m/s 13.0 mm 4.9° 1008.9 hPa 10.4 m/s 65.0 mm 5.3° 1011.0 hPa 11.9 m/s 1.6 mm 6.0° 1011.6 hPa 12.0 m/s 0.0 mm 5.1° 1010.8 hPa 12.4 m/s 5.4° 1009.8 hPa 11.3 m/s
 07:18     17:13    Daglengte: 9:55 Maandag 01 Maa
01:00 5.0° 1010.0 hPa 11.7 m/s 15.7 mm 4.4° 1007.7 hPa 9.4 m/s 66.2 mm 5.0° 1010.5 hPa 11.4 m/s 2.0 mm 5.5° 1010.8 hPa 12.7 m/s 0.0 mm 4.7° 1010.1 hPa 11.2 m/s 4.8° 1008.9 hPa 12.6 m/s
04:00 4.6° 1009.4 hPa 11.1 m/s 15.1 mm 4.1° 1006.0 hPa 9.6 m/s 66.7 mm 4.5° 1009.5 hPa 12.1 m/s 2.2 mm 5.1° 1011.4 hPa 11.2 m/s 0.0 mm 4.6° 1009.6 hPa 9.9 m/s 4.5° 1007.2 hPa 13.6 m/s
07:00 4.4° 1009.2 hPa 10.6 m/s 10.2 mm 3.7° 1004.9 hPa 11.3 m/s 68.5 mm 4.3° 1008.9 hPa 10.8 m/s 2.0 mm 4.3° 1012.1 hPa 10.0 m/s 0.0 mm 4.0° 1009.6 hPa 9.4 m/s 4.4° 1007.5 hPa 15.1 m/s
10:00 4.4° 1009.7 hPa 11.8 m/s 5.0 mm 4.1° 1004.9 hPa 14.3 m/s 72.1 mm 4.3° 1009.6 hPa 11.6 m/s 0.9 mm 4.3° 1010.2 hPa 11.3 m/s 4.2° 1007.7 hPa 15.5 m/s
13:00 4.6° 1010.1 hPa 12.0 m/s 10.7 mm 4.0° 1006.0 hPa 14.5 m/s 73.7 mm 4.6° 1009.1 hPa 11.8 m/s 1.8 mm 4.5° 1010.8 hPa 10.8 m/s 4.3° 1009.7 hPa 15.5 m/s
16:00 4.0° 1010.4 hPa 12.2 m/s 11.1 mm 3.9° 1006.5 hPa 14.6 m/s 75.5 mm 4.4° 1009.9 hPa 10.9 m/s 1.3 mm 3.4° 1011.1 hPa 11.7 m/s 3.4° 1010.8 hPa 13.6 m/s
19:00 3.2° 1011.1 hPa 8.9 m/s 9.5 mm 3.0° 1008.7 hPa 12.3 m/s 76.3 mm 4.4° 1010.9 hPa 7.6 m/s 0.6 mm 1.9° 1011.2 hPa 8.0 m/s 4.0° 1012.0 hPa 13.3 m/s
22:00 3.4° 1012.6 hPa 9.3 m/s 11.8 mm 3.0° 1011.6 hPa 9.5 m/s 79.2 mm 4.6° 1012.2 hPa 9.1 m/s 1.6 mm 2.7° 1012.5 hPa 8.8 m/s 4.0° 1013.6 hPa 12.8 m/s
 07:14     17:16    Daglengte: 10:02 Dinsdag 02 Maa
01:00 3.7° 1013.9 hPa 10.0 m/s 17.6 mm 2.6° 1014.0 hPa 7.9 m/s 81.8 mm 3.8° 1013.3 hPa 11.7 m/s 1.3 mm 3.5° 1013.8 hPa 9.5 m/s 3.8° 1015.1 hPa 10.9 m/s
04:00 3.6° 1014.9 hPa 9.9 m/s 18.9 mm 1.8° 1014.6 hPa 9.6 m/s 88.0 mm 3.7° 1015.4 hPa 10.6 m/s 1.4 mm 3.5° 1014.6 hPa 9.6 m/s 3.6° 1015.6 hPa 8.7 m/s
07:00 3.7° 1015.9 hPa 9.8 m/s 19.4 mm 3.3° 1015.4 hPa 10.9 m/s 91.5 mm 3.6° 1017.5 hPa 8.1 m/s 1.6 mm 3.5° 1015.5 hPa 9.6 m/s 3.7° 1017.1 hPa 11.4 m/s
10:00 3.8° 1017.7 hPa 9.8 m/s 31.7 mm 3.7° 1017.2 hPa 10.0 m/s 92.9 mm 4.3° 1020.1 hPa 9.1 m/s 1.1 mm 3.8° 1017.2 hPa 9.9 m/s 3.8° 1018.3 hPa 11.5 m/s
13:00 4.0° 1019.4 hPa 9.2 m/s 32.0 mm 3.3° 1018.3 hPa 8.8 m/s 94.8 mm 4.5° 1022.0 hPa 6.4 m/s 0.7 mm 4.0° 1019.0 hPa 10.2 m/s 3.9° 1019.4 hPa 12.1 m/s
16:00 3.9° 1019.4 hPa 9.1 m/s 40.3 mm 3.9° 1019.3 hPa 8.9 m/s 3.7° 1020.6 hPa 10.7 m/s 40.3 mm
19:00 3.9° 1019.6 hPa 8.4 m/s 40.6 mm 3.9° 1019.4 hPa 8.3 m/s 3.4° 1021.5 hPa 9.5 m/s 40.6 mm
22:00 3.8° 1017.1 hPa 8.5 m/s 40.9 mm 3.9° 1016.7 hPa 8.7 m/s 3.3° 1021.4 hPa 6.7 m/s 40.9 mm
 07:10     17:20    Daglengte: 10:10 Woensdag 03 Maa
01:00 3.8° 1014.4 hPa 8.9 m/s 41.2 mm 3.9° 1014.0 hPa 9.1 m/s 2.4° 1019.3 hPa 7.1 m/s 41.2 mm
04:00 2.9° 1011.6 hPa 9.7 m/s 42.4 mm 3.0° 1011.4 hPa 9.9 m/s 1.8° 1014.9 hPa 7.5 m/s 42.4 mm
07:00 2.3° 1008.8 hPa 11.0 m/s 45.3 mm 2.1° 1008.7 hPa 10.7 m/s 4.8° 1010.4 hPa 14.0 m/s 45.3 mm
10:00 2.1° 1009.4 hPa 10.0 m/s 47.6 mm 2.0° 1009.5 hPa 9.9 m/s 3.4° 1008.5 hPa 10.0 m/s 47.6 mm
13:00 1.8° 1010.1 hPa 9.6 m/s 49.7 mm 1.8° 1010.2 hPa 9.2 m/s 1.5° 1008.6 hPa 13.7 m/s 49.7 mm
16:00 1.5° 1011.9 hPa 9.5 m/s 50.7 mm 1.6° 1012.0 hPa 9.2 m/s -0.4° 1010.1 hPa 13.3 m/s 50.7 mm
19:00 1.3° 1013.7 hPa 9.4 m/s 51.9 mm 1.5° 1013.9 hPa 9.2 m/s -0.4° 1011.0 hPa 11.3 m/s 51.9 mm
22:00 1.1° 1015.7 hPa 9.0 m/s 53.0 mm 1.2° 1016.0 hPa 8.8 m/s -0.4° 1012.6 hPa 11.3 m/s 53.0 mm
 07:06     17:24    Daglengte: 10:18 Donderdag 04 Maa
01:00 0.9° 1017.8 hPa 8.5 m/s 54.5 mm 1.0° 1018.0 hPa 8.3 m/s -0.3° 1015.5 hPa 11.1 m/s 54.5 mm
04:00 0.5° 1018.2 hPa 8.1 m/s 54.8 mm 0.7° 1018.1 hPa 8.0 m/s -1.4° 1018.4 hPa 9.8 m/s 54.8 mm
07:00 0.2° 1018.5 hPa 7.7 m/s 55.1 mm 0.4° 1018.3 hPa 7.7 m/s -1.6° 1020.2 hPa 7.9 m/s 55.1 mm
10:00 0.6° 1019.4 hPa 7.3 m/s 55.5 mm 0.7° 1019.2 hPa 7.5 m/s -0.8° 1021.1 hPa 6.0 m/s 55.5 mm
13:00 0.9° 1020.2 hPa 7.2 m/s 55.6 mm 1.0° 1020.1 hPa 7.2 m/s 0.1° 1020.9 hPa 6.7 m/s 55.6 mm
16:00 0.6° 1019.3 hPa 6.0 m/s 57.0 mm 0.7° 1019.2 hPa 6.2 m/s -0.9° 1020.4 hPa 4.7 m/s 57.0 mm
19:00 0.2° 1018.5 hPa 4.9 m/s 57.5 mm 0.4° 1018.4 hPa 5.1 m/s -1.8° 1019.9 hPa 2.6 m/s 57.5 mm
22:00 0.1° 1018.6 hPa 4.5 m/s 58.6 mm 0.2° 1018.5 hPa 4.3 m/s -0.8° 1020.0 hPa 6.1 m/s 58.6 mm
 07:02     17:27    Daglengte: 10:25 Vrijdag 05 Maa
01:00 -0.1° 1018.6 hPa 4.0 m/s 59.8 mm -0.1° 1018.5 hPa 3.6 m/s -0.5° 1019.7 hPa 8.5 m/s 59.8 mm
04:00 -0.8° 1017.6 hPa 3.7 m/s 61.0 mm -0.8° 1017.4 hPa 3.2 m/s -0.5° 1019.3 hPa 8.6 m/s 61.0 mm
07:00 -1.5° 1016.6 hPa 3.2 m/s 62.1 mm -1.6° 1016.3 hPa 2.8 m/s -0.7° 1019.5 hPa 7.7 m/s 62.1 mm
10:00 -0.8° 1017.1 hPa 2.7 m/s 63.4 mm -0.8° 1016.8 hPa 2.5 m/s -0.9° 1019.7 hPa 5.0 m/s 63.4 mm
13:00 -0.0° 1017.6 hPa 2.2 m/s 64.6 mm 0.0° 1017.4 hPa 2.1 m/s -0.5° 1019.7 hPa 3.7 m/s 64.6 mm
16:00 -1.0° 1017.8 hPa 1.8 m/s 65.0 mm -1.0° 1017.5 hPa 1.9 m/s -0.9° 1020.0 hPa 1.3 m/s 65.0 mm
19:00 -2.0° 1017.9 hPa 1.6 m/s 65.2 mm -2.0° 1017.7 hPa 1.6 m/s -1.6° 1020.1 hPa 1.6 m/s 65.2 mm
22:00 -3.0° 1018.9 hPa 2.2 m/s 65.2 mm -3.1° 1018.8 hPa 2.2 m/s -2.1° 1020.4 hPa 3.2 m/s 65.2 mm
 06:58     17:31    Daglengte: 10:33 Zaterdag 06 Maa
01:00 -4.1° 1019.9 hPa 2.7 m/s 65.3 mm -4.2° 1019.9 hPa 2.7 m/s -2.6° 1019.4 hPa 3.3 m/s 65.3 mm
04:00 -4.2° 1020.0 hPa 2.9 m/s 65.3 mm -4.4° 1020.1 hPa 2.8 m/s -2.4° 1017.9 hPa 4.2 m/s 65.3 mm
07:00 -4.4° 1020.1 hPa 3.0 m/s 65.3 mm -4.6° 1020.4 hPa 2.8 m/s -1.9° 1016.6 hPa 4.8 m/s 65.3 mm
10:00 -2.7° 1020.1 hPa 2.9 m/s 65.5 mm -2.8° 1020.5 hPa 2.8 m/s -1.1° 1015.3 hPa 4.9 m/s 65.5 mm
13:00 -0.9° 1020.2 hPa 2.9 m/s 65.9 mm -1.0° 1020.7 hPa 2.7 m/s 0.1° 1014.3 hPa 4.7 m/s 65.9 mm
19:00 1.3° 1010.4 hPa 4.2 m/s 67.5 mm 1.1° 1010.1 hPa 3.9 m/s 3.7° 1013.7 hPa 7.9 m/s 67.5 mm
 06:54     17:34    Daglengte: 10:40 Zondag 07 Maa
01:00 1.5° 1009.3 hPa 6.9 m/s 68.5 mm 1.3° 1008.9 hPa 6.8 m/s 3.6° 1013.8 hPa 8.1 m/s 68.5 mm
07:00 -0.3° 1012.2 hPa 5.1 m/s 72.9 mm -0.8° 1012.1 hPa 4.8 m/s 4.7° 1013.1 hPa 9.0 m/s 72.9 mm
13:00 0.7° 1011.1 hPa 5.1 m/s 74.4 mm 0.4° 1011.2 hPa 4.6 m/s 4.5° 1010.1 hPa 11.2 m/s 74.4 mm
19:00 -0.0° 1011.2 hPa 3.1 m/s 80.4 mm -0.5° 1011.4 hPa 2.4 m/s 4.9° 1008.9 hPa 11.3 m/s 80.4 mm
 06:50     17:38    Daglengte: 10:48 Maandag 08 Maa
01:00 -0.3° 1010.9 hPa 4.0 m/s 83.2 mm -0.7° 1010.9 hPa 3.6 m/s 4.5° 1010.6 hPa 8.5 m/s 83.2 mm
07:00 -0.1° 1008.6 hPa 4.2 m/s 91.2 mm -0.4° 1008.6 hPa 4.0 m/s 3.1° 1008.2 hPa 6.2 m/s 91.2 mm
13:00 1.2° 1009.9 hPa 2.8 m/s 100.5 mm 0.9° 1010.1 hPa 2.4 m/s 4.4° 1007.9 hPa 7.4 m/s 100.5 mm
19:00 0.2° 1009.5 hPa 4.2 m/s 107.8 mm -0.2° 1009.6 hPa 3.7 m/s 5.0° 1008.5 hPa 9.1 m/s 107.8 mm
 06:46     17:41    Daglengte: 10:55 Dinsdag 09 Maa
01:00 4.2° 1010.0 hPa 8.8 m/s 109.0 mm 4.2° 1010.0 hPa 8.8 m/s 109.0 mm
07:00 4.0° 1010.7 hPa 7.0 m/s 111.5 mm 4.0° 1010.7 hPa 7.0 m/s 111.5 mm
13:00 1.4° 1004.1 hPa 3.7 m/s 2.0 mm
19:00 0.7° 1002.2 hPa 3.3 m/s 2.4 mm
 06:42     17:45    Daglengte: 11:03 Woensdag 10 Maa
01:00 -0.2° 1001.3 hPa 2.5 m/s 2.4 mm
07:00 -0.8° 999.8 hPa 2.5 m/s 1.6 mm
13:00 0.7° 999.3 hPa 3.0 m/s 2.0 mm
19:00 -0.3° 998.9 hPa 2.4 m/s 1.3 mm
 06:38     17:49    Daglengte: 11:11 Donderdag 11 Maa
01:00 -0.9° 998.4 hPa 3.2 m/s 1.5 mm
07:00 -1.1° 997.3 hPa 3.9 m/s 0.9 mm
13:00 0.7° 997.2 hPa 3.7 m/s 1.2 mm
19:00 -0.5° 997.5 hPa 2.5 m/s 1.6 mm
 06:34     17:52    Daglengte: 11:18 Vrijdag 12 Maa
01:00 -0.8° 998.2 hPa 2.4 m/s 1.6 mm
07:00 -0.9° 998.4 hPa 2.3 m/s 1.0 mm
13:00 0.5° 998.8 hPa 1.7 m/s 0.1 mm
19:00 -0.3° 999.1 hPa 1.3 m/s 0.7 mm
 06:29     17:56    Daglengte: 11:27 Zaterdag 13 Maa
01:00 -1.1° 1000.1 hPa 1.8 m/s 1.1 mm
07:00 -1.1° 1000.8 hPa 2.2 m/s 1.5 mm
13:00 0.6° 1002.2 hPa 2.6 m/s 1.4 mm
19:00 -0.8° 1003.4 hPa 1.9 m/s 1.2 mm
 06:25     17:59    Daglengte: 11:34 Zondag 14 Maa
01:00 -1.5° 1004.7 hPa 2.3 m/s 0.1 mm
07:00 -2.2° 1004.4 hPa 3.3 m/s 1.2 mm
13:00 0.3° 1004.3 hPa 2.9 m/s 1.3 mm
FMI Hirlam - 7.5 km EWN WRFDA - 12 km DWD ICON - 7 km GFS - 25 km Basiskaart